This is the latest recevied weather packets stored in our database for station/object WS2Z. If no packets are shown the sender has not sent any weather packets the latest 10 day(s).
| Time | Temp. | Humidity | Pressure | Rain* | Wind** | Luminosity | Snow |
|---|---|---|---|---|---|---|---|
| 1777819000 | 21.11° C | 93% | 1017.1 hPa | 0 mm | - | 58 W/m² | - |
| 1777818697 | 21.11° C | 93% | 1016.9 hPa | 0 mm | - | 63 W/m² | - |
| 1777818394 | 21.11° C | 93% | 1016.8 hPa | 0 mm | - | 72 W/m² | - |
| 1777818090 | 21.67° C | 92% | 1017 hPa | 0 mm | - | 58 W/m² | - |
| 1777817787 | 21.67° C | 92% | 1016.6 hPa | 0 mm | - | 72 W/m² | - |
| 1777817485 | 22.22° C | 91% | 1016.5 hPa | 0 mm | - | 97 W/m² | - |
| 1777817180 | 22.78° C | 92% | 1016.2 hPa | 0 mm | - | 45 W/m² | - |
| 1777816879 | 23.33° C | 93% | 1016.2 hPa | 0 mm | - | 95 W/m² | - |
| 1777816575 | 22.78° C | 94% | 1016 hPa | 0 mm | - | 205 W/m² | - |
| 1777816272 | 22.78° C | 94% | 1016 hPa | 0 mm | - | 127 W/m² | - |
| 1777815969 | 22.78° C | 94% | 1016.2 hPa | 0 mm | - | 111 W/m² | - |
| 1777815667 | 22.78° C | 94% | 1016.2 hPa | 0 mm | - | 75 W/m² | - |
| 1777815364 | 22.78° C | 94% | 1016.3 hPa | 0 mm | - | 52 W/m² | - |
| 1777815060 | 23.33° C | 94% | 1016.1 hPa | 0 mm | - | 25 W/m² | - |
| 1777814757 | 23.33° C | 94% | 1016.1 hPa | 0 mm | - | 42 W/m² | - |
| 1777814454 | 23.33° C | 94% | 1016.1 hPa | 0 mm | - | 34 W/m² | - |
| 1777814151 | 23.33° C | 94% | 1016 hPa | 0 mm | - | 32 W/m² | - |
| 1777813848 | 23.33° C | 94% | 1015.7 hPa | 0 mm | - | 39 W/m² | - |
| 1777813545 | 23.33° C | 94% | 1015.7 hPa | 0 mm | - | 34 W/m² | - |
| 1777813243 | 23.89° C | 94% | 1015.7 hPa | 0 mm | - | 40 W/m² | - |
| 1777812940 | 23.33° C | 95% | 1015.6 hPa | 0 mm | - | 107 W/m² | - |
| 1777812638 | 23.33° C | 95% | 1015.6 hPa | 0 mm | - | 94 W/m² | - |
| 1777812334 | 23.33° C | 95% | 1015.4 hPa | 0 mm | - | 57 W/m² | - |
| 1777812032 | 23.33° C | 95% | 1015.5 hPa | 0 mm | - | 51 W/m² | - |
| 1777811731 | 22.78° C | 95% | 1015.2 hPa | 0 mm | - | 70 W/m² | - |
* Rain latest hour (hover to see other rain measurements)
** Current wind speed in m/s (hover to see current wind gust speed)